User: anonymous   Login
Location: Unspecified
(0.0000°N, 0.0000°E)
Time: 10:47:36
(UTC+02:00)
Language:

Ariane H10 - Orbit

View from above orbital plane
View from above orbital plane
View from above satellite
View from above satellite

Ground track
Ground track

The orbit data is extracted from the following two-line orbital elements,

1 19122U 88040B   15106.46885580  .00001831  00000-0  97566-2 0  9990
2 19122 007.2173 132.0016 7149565 228.9657 350.4883 02.33011346178444
Epoch (UTC): 16 April 2015 11:15:09
Eccentricity: 0.7149565
inclination: 7.2173°
perigee height: 472 km
apogee height: 34838 km
right ascension of ascending node: 132.0016°
argument of perigee: 228.9657°
revolutions per day: 2.33011346
mean anomaly at epoch: 350.4883°
orbit number at epoch: 17844

The dashed part of the orbit path shows where the satellite is in the earth's shadow,  

DLR